Dayton, OH

2:18 AM EDT on March 26, 2017 (GMT -0400)
Cox-Dayton International

Weather History for KDAY - November, 2013

Change the Weather History Date:

Friday, November 22, 2013

  Actual Average Record
Temperature  
Mean Temperature 44 °F 40 °F  
Max Temperature 52 °F 48 °F 74 °F (1900)
Min Temperature 35 °F 32 °F 8 °F (1964)
Degree Days  
Heating Degree Days 21 25  
Month to date heating degree days 450 448  
Since 1 July heating degree days 837 895  
Cooling Degree Days 0 0  
Month to date cooling degree days 0 0  
Year to date cooling degree days 1062 891  
Moisture  
Dew Point 44 °F    
Average Humidity 85    
Maximum Humidity 100    
Minimum Humidity 70    
Precipitation  
Precipitation 0.15 in 0.13 in 1.54 in (1920)
Month to date precipitation 1.60 2.47  
Year to date precipitation 31.95 37.01  
Snow  
Snow 0.00 in 0.00 in 0.80 in (1967)
Month to date snowfall 0.9 0.3  
Since 1 July snowfall 1.9 0.7  
Since 1 September snowfall 1.9 0.7  
Snow Depth 0.00 in    
Sea Level Pressure  
Sea Level Pressure 30.24 in    
Wind  
Wind Speed 11 mph (WNW)    
Max Wind Speed 22 mph    
Max Gust Speed 28 mph    
Visibility 6 miles    
Events Rain    
T = Trace of Precipitation, MM = Missing Value Source: NWS Daily Summary

Daily Weather History Graph

Daily Weather History Graph

Search for Another Location

Airport or City:

Trip Planner

Search our weather history database for the weather conditions in past years. The results will help you decide how hot, cold, wet, or windy it might be!

Date:

Astronomy

Nov. 22, 2013 Rise Set
Actual Time 7:29 AM EST 5:15 PM EST
Civil Twilight 7:00 AM EST 5:45 PM EST
Nautical Twilight 6:27 AM EST 6:18 PM EST
Astronomical Twilight 5:55 AM EST 6:50 PM EST
Moon 9:47 PM EST (11/22) 11:12 AM EST (11/22)
Length of Visible Light 10h 44m
Length of Day
9h 45m
Waning Gibbous, 78% of the Moon is Illuminated
Nov 22
Waning Gibbous
Nov 25
Last Quarter
Dec 2
New
Dec 9
First Quarter
Dec 17
Full

Hourly Weather History & Observations

Time (EST) Temp. Windchill Dew Point Humidity Pressure Visibility Wind Dir Wind Speed Gust Speed Precip Events Conditions
12:56 AM 51.1 °F - 46.0 °F 83% 30.21 in 9.0 mi South 6.9 mph - N/A   Overcast
1:56 AM 50.0 °F - 48.0 °F 93% 30.19 in 5.0 mi SSW 6.9 mph - 0.00 in   Overcast
2:21 AM 50.0 °F - 48.2 °F 94% 30.19 in 3.0 mi SSW 5.8 mph - 0.01 in Rain Light Rain
2:56 AM 50.0 °F - 48.9 °F 96% 30.20 in 4.0 mi SSW 6.9 mph - 0.01 in   Overcast
3:56 AM 51.1 °F - 48.9 °F 92% 30.19 in 3.0 mi SSW 9.2 mph - N/A   Overcast
4:22 AM 51.8 °F - 50.0 °F 94% 30.18 in 3.0 mi SSW 8.1 mph - N/A   Overcast
4:33 AM 51.8 °F - 50.0 °F 94% 30.18 in 3.0 mi SW 8.1 mph - N/A   Overcast
4:56 AM 52.0 °F - 50.0 °F 93% 30.19 in 4.0 mi SW 10.4 mph - 0.00 in Rain Light Rain
5:56 AM 52.0 °F - 51.1 °F 97% 30.18 in 3.0 mi SW 4.6 mph - 0.01 in Rain Light Rain
6:56 AM 52.0 °F - 51.1 °F 97% 30.17 in 4.0 mi SW 5.8 mph - 0.00 in Rain Light Rain
7:22 AM 51.8 °F - 51.8 °F 100% 30.18 in 2.0 mi SSW 4.6 mph - 0.01 in Rain Light Rain
7:24 AM 51.8 °F - 51.8 °F 100% 30.18 in 0.8 mi SSW 4.6 mph - 0.01 in Rain Light Rain
7:48 AM 51.8 °F - 51.8 °F 100% 30.18 in 1.2 mi SW 4.6 mph - 0.07 in Rain Light Rain
7:56 AM 52.0 °F - 51.1 °F 97% 30.18 in 1.2 mi SW 4.6 mph - 0.07 in Rain Light Rain
8:30 AM 51.8 °F - 51.8 °F 100% 30.18 in 0.0 mi WSW 3.5 mph - 0.00 in   Overcast
8:33 AM 51.8 °F - 51.8 °F 100% 30.18 in 0.0 mi WSW 3.5 mph - 0.00 in   Overcast
8:56 AM 52.0 °F - 51.1 °F 97% 30.19 in 0.2 mi West 5.8 mph - 0.01 in Rain Light Rain
9:37 AM 51.8 °F - 50.0 °F 94% 30.20 in 1.0 mi NW 6.9 mph - 0.02 in Rain Rain
9:56 AM 51.1 °F - 50.0 °F 96% 30.21 in 1.0 mi NW 8.1 mph - 0.02 in Rain Light Rain
10:24 AM 51.8 °F - 48.2 °F 88% 30.20 in 1.0 mi NW 10.4 mph - 0.03 in Rain Light Rain
10:33 AM 51.8 °F - 48.2 °F 88% 30.21 in 1.0 mi WNW 10.4 mph - 0.03 in Rain Light Rain
10:38 AM 50.0 °F - 48.2 °F 94% 30.21 in 3.0 mi NW 9.2 mph - 0.03 in Rain Light Rain
10:56 AM 50.0 °F - 48.9 °F 96% 30.22 in 4.0 mi WNW 10.4 mph - 0.03 in Rain Light Rain
11:26 AM 50.0 °F - 48.2 °F 94% 30.21 in 7.0 mi NW 12.7 mph - 0.00 in   Overcast
11:56 AM 50.0 °F - 46.9 °F 89% 30.21 in 8.0 mi NNW 12.7 mph - 0.00 in   Overcast
12:56 PM 50.0 °F - 46.0 °F 86% 30.21 in 6.0 mi NNW 12.7 mph - N/A   Overcast
1:14 PM 48.2 °F - 44.6 °F 87% 30.21 in 5.0 mi NNW 15.0 mph - N/A   Overcast
1:56 PM 46.9 °F - 43.0 °F 86% 30.23 in 4.0 mi NNW 13.8 mph - N/A   Overcast
2:15 PM 46.4 °F 40.7 °F 42.8 °F 87% 30.23 in 4.0 mi NNW 12.7 mph 27.6 mph N/A   Overcast
2:56 PM 45.0 °F 36.9 °F 41.0 °F 86% 30.25 in 6.0 mi NNW 20.7 mph 27.6 mph N/A   Overcast
3:34 PM 44.6 °F 37.4 °F 39.2 °F 81% 30.26 in 10.0 mi NNW 16.1 mph 25.3 mph N/A   Overcast
3:56 PM 45.0 °F 38.2 °F 39.0 °F 80% 30.27 in 10.0 mi NW 15.0 mph - N/A   Overcast
4:51 PM 42.8 °F 35.4 °F 37.4 °F 81% 30.27 in 10.0 mi NNW 15.0 mph - N/A   Overcast
4:56 PM 43.0 °F 35.7 °F 37.0 °F 80% 30.28 in 10.0 mi NNW 15.0 mph - N/A   Overcast
5:03 PM 42.8 °F 35.4 °F 37.4 °F 81% 30.27 in 10.0 mi NNW 15.0 mph - N/A   Overcast
5:56 PM 42.1 °F 33.6 °F 35.1 °F 76% 30.32 in 10.0 mi NNW 18.4 mph - N/A   Overcast
6:56 PM 39.9 °F 31.1 °F 34.0 °F 79% 30.36 in 10.0 mi NNW 17.3 mph - N/A   Overcast
7:56 PM 39.9 °F 30.8 °F 30.9 °F 70% 30.37 in 10.0 mi North 18.4 mph - N/A   Overcast
8:56 PM 37.9 °F 30.0 °F 30.9 °F 76% 30.39 in 10.0 mi North 12.7 mph - N/A   Overcast
9:56 PM 37.9 °F 30.0 °F 30.0 °F 73% 30.39 in 10.0 mi North 12.7 mph - N/A   Overcast
10:30 PM 37.4 °F 29.8 °F 28.4 °F 70% 30.37 in 10.0 mi North 11.5 mph - N/A   Overcast
10:56 PM 37.0 °F 31.0 °F 28.0 °F 70% 30.39 in 10.0 mi North 8.1 mph - N/A   Overcast
11:56 PM 35.1 °F 28.6 °F 28.0 °F 76% 30.39 in 10.0 mi North 8.1 mph - N/A   Mostly Cloudy